Torna al catalogo

HAWK-11B

AttivoScienzaVLEO
NORAD 62379·PAYLOAD·🇺🇸 United States

Lanciato Dec 21, 2024 da Vandenberg Space Force Base

Loading…

Prossimi Passaggi (prossime 24 ore)

TLE

AggiornatoSource: Space-Track

Epoca: Sep 13, 2026, 18:50 UTC

1 62379U 24247C   26256.78529372  .00005299  00000-0  18154-3 0  9997
2 62379  45.0146 163.7703 0002282  12.0045 348.0894 15.31354779 96581

Traccia HAWK-11B in tempo reale con AllMySat

Download on the App Store